ATLAS 5 CENTAUR DEB, 43967

Orbit data source: Space-Track

ATLAS 5 CENTAUR DEB, 43967 is space debris in HEO originally from a launch on Wed, 17 Sep 2014 UTC launched from the Air Force Eastern Test Range (AFETR). Debris objects in space refer to the collection of defunct objects orbiting the Earth. Examples of debris include non-operational satellites, rocket bodies, and fragments generated from explosions, collisions, or faulty payload assembly.

Loading next visibility...
Identifier
43967, 2014-055W
Orbit
HEO
Country
Flag of USUS
Related business
Flag of USUnited Launch Alliance/Lockheed Martin (US)
Manufacturer
Unknown
Mission
Spacecraft
Bus & Motor
Unknown
Mass
Unknown
Launch date (UTC)
2014-09-17 (11 years ago)
Launch vehicle
Unknown
Launch site
Air Force Eastern Test Range (AFETR)
Object type
Payload
Rocket body
Debris
Shape & HBR
Unknown shape, 1.1 m
Radar Cross Section
Medium (>0.1 m² and <1 m²)

Expand to show TLE details & history
Last TLE update: 2 days ago

TLE from 2 days ago
0 ATLAS 5 CENTAUR DEB
1 43967U 14055W   25337.15475083 -.00000006  00000-0  00000-0 0  9994
2 43967  19.8734 153.3262 5082324 146.0821 260.5542  1.82857343 48413
Epoch: 2025-12-03T03:42Z
TLE epoch observation values (Epoch: 2025-12-03T03:42:50.471Z)
Latitude
-0.00009°
Longitude
25.43526°
Altitude
29,804.59 km
Speed
2.815 km/s
True Right ascension
10h 13m 30s
True Declination
0° 00' 00"
Sunlit
Object was in daylight at epoch
Visualization orbit readout
Latitude
Unknown
Longitude
Unknown
Altitude
Unknown
Speed
Unknown
Apparent Right ascension
Unknown
Apparent Declination
Unknown
Sunlit
N/A
Visualization observer readout
Local Sidereal Time
17:46:35
Azimuth
Unknown
Elevation
Unknown
Doppler factor
Unknown
Orbital elements
Apogee altitude
36,230.057 km
Perigee altitude
7,514.503 km
Semi-major axis
28,250.417 km
Eccentricity
0.50823
Inclination
19.8734°
RAAN
153.3262°
Arg. of periapsis
146.0821°
True anomaly
213.99399°
Mean anomaly
260.5542°
Eccentric anomaly
236.32188°
Mean motion
0.45709 °/min
Orbital period
787.58 mins
BSTAR
0
Loading maneuver chart data...
Computing Atmospheric mass density...

Documentation

Showing up to 5 results
|